Weather observations for the past three days for
Block Island State Airport
Imperial (Metric)
Date Time (edt) Wind (mph) Vis. (mi.) Weather Sky Cond. Temperature (ºF) Relative Humidity Wind Chill (°F) Heat Index (°F) Pressure Precipitation (in)
Air Dwpt 6 hour altimeter (in) sea level (mb) 1 hr 3 hr 6 hr
Max. Min.
20 18:56 SW 20 G 25 10.00 Fair CLR 70 64.9 84% 30.22 1023.2
20 17:56 SW 21 G 26 10.00 Fair and Breezy CLR 71.1 66 84% 30.23 1023.5
20 16:56 SW 21 G 28 10.00 Fair and Breezy CLR 73 66 79% 30.24 1023.8
20 15:56 SW 18 G 28 10.00 Fair CLR 73 66.9 81% 30.25 1024.4
20 14:56 SW 21 G 28 10.00 Fair and Breezy CLR 75 66.9 76% 76 30.27 1025.2
20 13:56 SW 23 G 30 10.00 Fair and Breezy CLR 73.9 66.9 75 68 79% 30.29 1025.7
20 12:56 SW 22 G 28 10.00 Fair and Breezy CLR 73.9 66.9 79% 30.31 1026.4
20 11:56 SW 21 G 26 10.00 Fair and Breezy CLR 73 66 79% 30.32 1026.8
20 10:56 SW 22 G 29 10.00 Fair and Breezy CLR 72 66 82% 30.32 1026.6
20 09:56 SW 20 G 29 10.00 Fair CLR 72 64.9 79% 30.32 1026.6
20 08:56 SW 18 G 24 10.00 Fair CLR 71.1 64.9 81% 30.31 1026.3
20 07:56 SW 18 10.00 Fair CLR 68 64.9 68 64.9 90% 30.32 1026.6
20 06:56 SW 16 10.00 Fair CLR 66.9 64 91% 30.31 1026.5
20 05:56 SW 16 10.00 Fair CLR 66 64 93% 30.3 1026.1
20 04:56 SW 15 10.00 Fair CLR 64.9 64 97% 30.31 1026.2
20 03:56 SW 15 10.00 Fair CLR 64.9 64 97% 30.31 1026.3
20 02:56 SW 15 10.00 Fair CLR 66 64 93% 30.31 1026.4
20 01:56 SW 15 10.00 Fair CLR 66 64 68 66 93% 30.32 1026.8
20 00:56 SW 13 10.00 Fair CLR 66.9 64 91% 30.33 1027.1
19 23:56 SW 14 10.00 Fair CLR 66 64 93% 30.34 1027.5
19 22:56 SW 13 10.00 Fair CLR 66 64 93% 30.34 1027.3
19 21:56 SW 16 10.00 Fair CLR 66 64 93% 30.33 1027.0
19 20:56 SW 13 10.00 Fair CLR 66 64.9 96% 30.34 1027.4
19 19:56 SW 16 10.00 Fair CLR 68 64 75 68 87% 30.35 1027.6
19 18:56 SW 16 10.00 Fair CLR 70 64 82% 30.35 1027.5
19 17:56 SW 17 10.00 Fair CLR 72 64 76% 30.33 1026.9
19 16:56 SW 20 G 25 10.00 Fair CLR 73 64 74% 30.33 1027.2
19 15:56 SW 18 10.00 Fair CLR 73 63 71% 30.34 1027.5
19 14:56 SW 20 G 28 10.00 Fair CLR 73.9 64 71% 30.34 1027.5
19 13:56 SW 18 10.00 Fair CLR 73.9 64.9 75 69.1 74% 0 0.0
19 12:56 SW 22 G 26 10.00 Fair and Breezy CLR 75 64.9 71% 77 30.36 1028.1
19 11:56 SW 17 10.00 Fair CLR 73.9 64.9 74% 30.37 1028.3
19 10:56 SW 17 G 24 10.00 Fair CLR 73.9 64.9 74% 30.37 1028.5
19 09:56 SW 16 10.00 Fair CLR 71.1 64 79% 30.36 1028.1
19 08:56 SW 17 10.00 Fair CLR 69.1 64 84% 30.36 1028.1
19 07:56 SW 14 10.00 Fair CLR 69.1 64 69.1 64 84% 30.36 1028.1
19 06:56 SW 13 10.00 Fair CLR 66 63 90% 30.36 1028.1
19 05:56 SW 13 10.00 Fair CLR 64.9 62.1 90% 30.35 1027.7
19 04:56 SW 15 10.00 Fair CLR 66 63 90% 30.34 1027.4
19 03:56 SW 14 10.00 Fair CLR 64.9 63 93% 30.33 1027.0
19 02:56 SW 12 10.00 Fair CLR 64 63 96% 30.32 1026.8
19 01:56 SW 13 10.00 Fair CLR 64.9 63 66.9 64 93% 30.31 1026.5
19 00:56 SW 12 10.00 Fair CLR 64.9 63 93% 30.31 1026.4
18 23:56 SW 13 10.00 Fair CLR 64.9 63 93% 30.31 1026.3
18 22:56 SW 12 10.00 Fair CLR 64.9 63 93% 30.31 1026.4
18 21:56 SW 10 10.00 Fair CLR 64.9 62.1 90% 30.31 1026.3
18 20:56 SW 13 10.00 Fair CLR 66.9 63 87% 30.28 1025.5
18 19:56 SW 12 10.00 Fair CLR 66.9 62.1 73.9 66.9 84% 30.28 1025.5
18 18:56 SW 15 10.00 Fair CLR 69.1 63 81% 30.27 1025.0
18 17:56 SW 16 10.00 Fair CLR 71.1 63 76% 30.26 1024.7
18 16:56 SW 16 10.00 Fair CLR 72 63 73% 30.26 1024.6
18 15:56 SW 15 10.00 Fair CLR 73 63 71% 30.27 1025.0
18 14:56 SW 22 G 28 10.00 Fair and Breezy CLR 72 63 73% 30.27 1024.9
18 13:56 SW 23 G 31 10.00 Fair and Breezy CLR 73 63 73.9 66 71% 30.27 1024.9
18 12:56 SW 21 G 28 10.00 Fair and Breezy CLR 72 64 76% 30.28 1025.3
18 11:56 SW 23 G 28 10.00 Fair and Breezy CLR 72 64.9 79% 30.28 1025.5
18 10:56 SW 20 G 25 10.00 Fair CLR 71.1 64.9 81% 30.29 1025.5
18 09:56 SW 18 G 22 10.00 Overcast OVC075 70 64 82% 30.28 1025.3
18 08:56 SW 17 10.00 Overcast FEW055 OVC070 68 64 87% 30.27 1025.1
18 07:56 SW 17 10.00 A Few Clouds FEW070 66 63 66 64 90% 30.26 1024.9
18 06:56 SW 18 10.00 Partly Cloudy SCT070 64.9 62.1 90% 30.25 1024.5
18 05:56 SW 15 10.00 Fair CLR 64.9 62.1 90% 30.24 1024.0
18 04:56 SW 14 10.00 Fair CLR 64 62.1 93% 30.21 1023.0
18 03:56 SW 14 10.00 Fair CLR 64 62.1 93% 0 0.0
18 02:56 SW 14 10.00 Fair CLR 64.9 62.1 90% 30.2 1022.5
18 01:56 SW 15 10.00 A Few Clouds FEW070 64.9 62.1 66.9 64 90% 30.2 1022.7
18 00:56 SW 13 10.00 Fair CLR 64 62.1 93% 30.21 1022.9
17 23:56 SW 13 10.00 Fair CLR 64.9 62.1 90% 30.21 1023.1
17 22:56 SW 13 10.00 Fair CLR 66 62.1 87% 30.22 1023.2
17 21:56 SW 13 10.00 Fair CLR 66 62.1 87% 30.21 1023.2
17 20:56 SW 13 10.00 Fair CLR 66.9 62.1 84% 30.2 1022.7
17 19:56 S 12 10.00 Fair CLR 66.9 62.1 72 66.9 84% 30.2 1022.7
Date Time (edt) Wind (mph) Vis. (mi.) Weather Sky Cond. Air Dwpt Max. Min. Relative Humidity Wind Chill (°F) Heat Index (°F) altimeter (in) sea level (mb) 1 hr 3 hr 6 hr
6 hour
Temperature (ºF) Pressure Precipitation (in)